Wind_Speed
13 12 10 9 11 13 15 16 18 19 21 22 23 23 24 24 24 24 25 25 25 24 24 24 23 23 23 23 23 23 23 24 24 24 24 23 23 23 23 22 22 22 22 23
10 10 10 9 12 13 15 18 19 20 22 23 23 23 23 23 22 23 24 24 24 23 23 23 23 22 22 21 21 21 22 22 22 21 21 21 21 21 21 20 21 21 21 21
9 9 11 11 12 14 16 17 18 19 19 20 21 22 23 23 22 22 22 22 23 23 23 22 21 21 20 20 19 19 19 19 19 19 18 18 18 17 17 17 17 17 17 17
10 11 11 10 12 13 15 16 17 17 18 19 20 21 22 23 23 23 23 22 22 21 21 20 20 19 19 18 18 18 18 18 18 17 17 16 15 14 15 15 14 14 14 14
10 11 10 9 11 13 14 14 15 16 16 17 18 20 21 21 22 22 22 22 21 20 19 19 18 17 17 16 16 16 16 16 17 16 14 12 11 11 11 11 11 11 11 11
9 10 10 10 11 13 13 14 15 15 15 17 18 18 19 19 20 21 21 20 19 18 18 17 16 15 15 15 14 14 14 15 15 13 12 10 10 9 9 8 7 7 7 8
8 9 10 11 11 13 14 15 15 15 16 16 17 17 18 19 20 20 19 19 18 17 16 15 14 13 13 13 13 13 13 13 12 10 9 9 8 7 7 6 5 5 5 6
8 8 10 11 11 13 14 15 15 15 16 16 17 18 19 19 18 18 17 16 15 14 13 12 11 11 11 11 11 11 11 10 9 8 7 6 6 5 4 4 4 4 4 3
8 9 10 10 12 13 13 13 14 15 15 16 16 17 18 18 17 16 15 13 12 12 11 10 9 9 9 9 9 9 9 8 8 7 6 5 4 3 3 3 3 4 4 4
9 10 9 10 11 12 12 12 12 13 14 14 14 15 16 16 15 14 12 11 10 10 10 8 8 7 7 7 8 8 7 8 8 7 7 6 4 4 3 4 5 6 6 7
9 9 8 9 10 10 10 11 11 12 12 12 13 14 14 13 13 12 11 10 9 9 8 7 7 6 7 7 7 7 7 7 7 7 7 7 7 6 6 6 6 7 8 8
9 9 8 9 10 10 10 10 10 11 11 12 12 12 12 12 11 10 9 9 8 8 8 7 6 6 6 6 6 7 7 8 8 8 8 8 9 8 8 8 8 8 9 10
9 9 9 9 9 9 9 10 10 10 11 11 11 11 11 10 10 9 8 8 8 8 8 7 7 7 7 7 7 7 8 9 9 10 10 10 10 10 10 10 10 10 10 11
8 8 8 7 7 8 8 9 9 10 10 11 10 10 10 9 8 8 7 7 7 8 8 8 8 8 8 8 8 9 9 10 11 12 12 12 12 11 11 11 12 12 12 12
8 7 7 6 6 7 7 8 9 9 9 9 9 9 8 8 7 7 6 6 7 8 8 9 9 9 9 10 10 10 11 12 12 12 13 13 14 13 13 13 13 13 14 14
7 7 6 6 6 6 7 7 8 8 8 8 8 8 7 6 6 7 7 7 7 8 8 9 9 10 10 10 11 12 12 13 13 13 14 15 15 15 15 15 15 15 15 15
7 7 6 6 6 6 6 7 7 7 7 7 7 7 6 6 6 6 6 6 7 8 8 8 9 10 11 11 12 12 12 13 14 14 15 15 15 15 15 15 15 15 15 15
7 7 6 5 5 5 5 6 6 6 6 6 6 5 5 5 5 5 5 6 6 7 8 8 9 10 11 11 12 13 13 14 14 15 15 15 15 15 15 15 15 15 15 15
8 7 6 6 5 5 5 5 5 5 5 5 4 4 4 4 4 4 5 5 6 6 7 8 8 9 10 10 11 12 13 13 14 14 15 15 15 15 15 16 16 16 16 16
8 8 8 7 6 5 5 5 4 4 4 3 3 4 4 4 4 4 4 5 5 6 6 7 7 8 9 9 10 11 12 13 13 13 14 14 14 15 15 15 15 15 15 15
10 9 9 8 7 6 5 5 4 3 2 2 2 2 3 3 4 4 4 4 4 4 5 6 7 8 8 9 9 10 11 11 12 12 13 13 13 13 14 14 14 14 14 14
11 11 10 9 9 8 7 6 4 3 2 2 1 1 1 2 2 3 3 4 4 5 5 6 6 7 7 8 8 9 10 10 10 11 11 11 11 12 12 12 12 13 13 13
13 13 12 11 10 9 8 7 6 5 4 3 2 1 1 1 1 2 3 4 4 5 5 5 6 6 7 7 7 8 8 8 8 8 9 9 9 9 10 10 10 11 11 11
15 14 13 13 12 11 10 9 8 7 6 5 3 3 2 2 2 3 3 4 4 4 4 5 5 5 5 5 6 6 6 6 6 6 7 7 7 7 7 8 8 9 9 9
16 16 15 15 14 13 12 11 11 10 8 7 6 5 5 4 4 4 4 4 4 4 4 4 4 4 4 4 4 4 4 4 4 4 4 4 5 5 6 6 6 7 7 8
18 17 17 16 16 15 14 13 13 12 12 10 9 8 7 7 6 6 6 6 5 5 5 5 4 4 4 4 4 3 3 3 3 2 2 2 3 3 3 4 4 5 6 6
20 19 19 18 18 17 16 16 15 15 14 13 12 12 11 10 9 9 8 8 8 7 7 6 6 5 5 5 5 4 3 3 3 2 2 1 0 0 1 2 3 4 5 6
Wind_Direction
250 262 253 250 255 263 267 266 265 269 278 285 287 293 299 300 301 303 303 304 303 302 302 301 301 300 299 299 299 299 299 298 297 295 294 292 290 288 286 284 282 280 278 277
262 269 263 261 262 263 264 266 269 274 279 286 292 295 298 302 305 304 304 305 304 304 303 302 302 301 301 300 299 298 298 298 298 299 298 295 293 289 286 284 282 281 281 280
256 268 270 267 266 267 269 272 275 277 281 285 289 294 297 302 305 308 307 306 305 305 305 304 303 303 302 302 301 300 301 302 303 302 302 301 298 292 287 286 284 284 283 281
258 263 267 268 272 273 275 276 280 285 288 289 293 296 300 302 305 308 310 308 307 307 307 306 305 305 306 305 304 303 304 304 305 305 305 304 300 295 292 291 289 286 286 285
262 268 271 267 276 277 275 281 287 290 294 297 299 299 301 304 306 308 311 311 310 309 308 307 307 307 307 307 308 308 309 309 309 307 309 308 306 304 299 295 292 288 289 288
267 271 274 274 283 288 289 289 294 298 300 302 303 302 304 308 310 312 311 311 310 310 308 306 307 308 309 310 312 314 314 314 313 308 307 306 307 309 304 299 296 295 296 298
268 268 274 282 289 291 292 296 301 302 303 304 307 310 311 312 313 313 310 310 310 308 307 309 310 311 312 313 315 318 321 321 320 315 311 308 308 311 309 308 310 308 304 307
279 278 280 289 292 292 294 297 302 304 305 307 310 313 314 316 318 317 314 313 311 310 313 315 315 316 318 320 323 325 326 328 331 329 325 318 317 318 317 320 327 330 330 345
295 293 291 293 294 292 295 298 301 304 308 310 311 313 316 321 324 324 323 322 320 320 322 325 327 324 326 329 333 337 340 344 349 351 346 343 346 352 5 19 30 40 41 48
290 290 293 294 294 298 302 304 306 310 312 315 318 320 323 327 329 332 332 332 332 332 334 334 337 340 344 348 351 353 0 9 13 15 20 24 35 53 62 64 65 60 66 67
296 299 300 300 305 308 311 312 312 315 317 319 323 325 327 331 336 340 341 344 347 349 350 349 354 1 360 1 6 13 24 27 27 33 41 52 63 72 72 71 73 72 72 69
300 306 305 303 307 311 318 319 320 322 324 326 330 332 333 337 343 348 353 356 1 6 9 9 11 12 10 20 28 34 40 43 47 53 64 69 72 74 73 75 79 79 77 76
301 305 304 303 302 310 317 320 326 328 330 334 336 340 342 345 351 359 4 13 21 22 22 27 35 37 38 42 48 52 55 59 62 67 72 74 75 76 77 78 79 79 78 76
301 302 304 304 306 312 316 320 325 329 334 338 341 344 348 353 1 9 17 26 29 32 36 42 47 51 57 58 61 65 71 73 72 73 75 76 77 78 78 78 78 80 79 79
300 303 304 307 316 323 323 326 332 335 339 343 347 351 357 3 12 21 29 35 37 39 43 48 55 63 69 70 72 76 79 79 77 76 77 77 79 80 80 81 82 82 82 80
298 303 303 302 309 318 322 329 337 341 346 350 352 357 5 16 25 35 43 43 45 48 52 58 64 69 74 77 79 81 81 80 80 78 79 80 82 81 81 80 81 82 81 78
292 297 299 301 307 313 322 330 340 346 349 354 358 4 13 22 32 44 49 49 52 55 60 67 72 76 78 79 80 80 81 82 83 82 82 83 82 81 80 80 81 80 80 79
284 289 293 296 305 312 321 330 340 347 350 354 360 8 18 28 37 46 53 58 62 64 69 76 80 81 80 81 82 82 83 84 84 84 84 84 83 82 81 80 80 80 79 78
277 279 282 285 288 302 318 327 336 345 351 359 10 21 32 43 44 51 62 68 71 75 80 84 85 83 83 84 84 85 85 85 86 86 86 85 84 83 82 81 81 80 78 77
267 268 270 273 277 289 304 317 326 340 354 9 22 32 45 54 53 61 69 78 83 86 89 91 93 92 90 90 89 88 87 87 88 89 88 87 85 84 82 80 79 78 77 75
261 261 263 264 267 274 282 291 302 319 338 357 6 24 45 60 58 65 79 88 94 97 99 102 103 102 98 96 96 94 92 91 90 89 88 86 85 83 80 78 76 75 73 71
257 257 258 259 262 264 266 270 273 280 298 321 346 11 46 71 73 79 95 106 111 111 111 113 113 112 108 104 103 100 97 95 92 89 88 86 83 80 78 76 74 72 70 67
255 253 254 255 257 258 258 258 257 255 256 265 277 286 268 162 128 120 122 121 120 120 120 121 122 121 117 113 111 107 104 99 94 90 88 86 84 81 77 75 72 69 65 61
253 251 252 252 253 252 251 251 249 246 242 241 243 241 232 214 193 173 157 150 143 138 139 139 137 134 129 126 124 119 113 106 100 95 91 88 84 80 77 73 69 64 59 53
252 250 250 249 250 250 247 246 243 241 239 236 235 233 229 224 214 203 195 188 179 171 168 168 164 157 150 149 147 142 133 124 114 106 98 91 85 80 74 69 64 57 50 44
250 249 248 247 248 247 245 244 242 240 238 236 234 231 229 227 223 218 214 210 204 198 196 196 195 190 184 181 179 175 165 155 147 135 119 104 89 77 67 58 49 40 33 26
249 248 247 246 245 244 243 242 242 241 239 237 236 234 232 231 230 229 227 223 220 217 214 212 213 212 209 206 206 207 204 197 191 187 183 174 157 34 17 13 8 3 359 356
Height
5793 5794 5794 5795 5797 5798 5798 5798 5797 5796 5794 5792 5789 5788 5785 5783 5781 5779 5776 5774 5771 5768 5765 5762 5759 5757 5754 5752 5750 5747 5745 5742 5740 5738 5736 5734 5733 5731 5731 5730 5730 5729 5729 5729
5791 5791 5792 5793 5794 5794 5794 5794 5793 5792 5791 5789 5786 5784 5782 5779 5777 5774 5771 5769 5766 5762 5760 5757 5754 5752 5749 5747 5744 5742 5740 5737 5735 5732 5730 5728 5727 5725 5725 5724 5724 5724 5723 5723
5789 5789 5789 5790 5791 5791 5791 5790 5789 5788 5788 5785 5783 5781 5779 5776 5773 5769 5766 5764 5761 5758 5755 5752 5749 5747 5744 5742 5740 5737 5735 5733 5730 5728 5726 5724 5722 5720 5720 5720 5719 5719 5718 5718
5786 5787 5787 5789 5787 5787 5787 5786 5785 5784 5783 5781 5779 5777 5774 5772 5769 5765 5762 5759 5756 5753 5750 5747 5744 5742 5740 5738 5735 5733 5731 5728 5726 5724 5722 5720 5718 5717 5716 5715 5715 5715 5714 5714
5783 5783 5783 5783 5784 5783 5783 5783 5782 5781 5779 5778 5776 5773 5771 5768 5764 5761 5758 5754 5751 5748 5746 5743 5740 5738 5736 5734 5731 5729 5727 5725 5722 5720 5718 5717 5716 5714 5713 5713 5712 5712 5711 5711
5781 5781 5781 5782 5781 5780 5781 5779 5779 5777 5776 5774 5772 5769 5767 5764 5760 5757 5753 5750 5747 5744 5741 5739 5737 5735 5733 5730 5728 5726 5724 5721 5719 5717 5716 5715 5714 5713 5712 5711 5710 5710 5709 5709
5780 5779 5779 5779 5779 5779 5779 5778 5775 5774 5772 5770 5768 5766 5763 5760 5756 5753 5749 5746 5743 5740 5738 5736 5734 5732 5730 5728 5726 5724 5722 5719 5717 5715 5714 5713 5712 5711 5711 5710 5709 5709 5708 5708
5778 5778 5779 5777 5776 5777 5775 5773 5772 5771 5769 5767 5765 5762 5759 5756 5752 5749 5745 5742 5739 5737 5735 5732 5731 5729 5727 5726 5724 5722 5720 5718 5716 5714 5713 5712 5711 5711 5710 5710 5709 5709 5708 5708
5777 5778 5776 5775 5774 5773 5772 5771 5769 5768 5766 5764 5761 5759 5756 5753 5749 5746 5742 5739 5737 5735 5733 5731 5729 5728 5726 5724 5723 5721 5719 5717 5715 5714 5713 5712 5711 5711 5711 5710 5710 5710 5709 5710
5775 5774 5773 5773 5771 5770 5769 5768 5767 5765 5763 5761 5758 5756 5753 5750 5746 5743 5740 5738 5736 5733 5731 5730 5728 5727 5725 5724 5722 5720 5719 5717 5716 5715 5714 5713 5712 5712 5712 5712 5712 5711 5711 5711
5773 5772 5772 5771 5769 5768 5767 5766 5764 5762 5760 5758 5756 5753 5751 5748 5745 5742 5739 5737 5735 5733 5731 5730 5728 5727 5726 5724 5723 5721 5720 5718 5717 5716 5715 5715 5714 5714 5713 5713 5713 5714 5714 5714
5772 5771 5770 5769 5768 5766 5765 5764 5762 5760 5758 5756 5754 5752 5749 5747 5744 5742 5739 5737 5735 5733 5732 5730 5729 5727 5726 5725 5724 5723 5722 5720 5719 5718 5718 5717 5716 5716 5716 5716 5716 5716 5716 5716
5770 5769 5769 5768 5767 5765 5764 5763 5761 5759 5757 5755 5753 5750 5748 5746 5744 5742 5740 5738 5736 5735 5733 5731 5730 5729 5728 5726 5726 5725 5724 5723 5722 5721 5720 5720 5719 5719 5719 5719 5719 5719 5719 5719
5768 5768 5767 5766 5766 5764 5763 5762 5760 5758 5756 5754 5752 5750 5748 5746 5744 5742 5741 5739 5738 5737 5735 5733 5732 5731 5730 5729 5728 5727 5726 5726 5725 5724 5724 5723 5723 5723 5723 5723 5723 5723 5723 5723
5767 5766 5766 5765 5764 5763 5762 5761 5759 5757 5755 5753 5751 5750 5748 5746 5745 5743 5742 5741 5740 5739 5737 5736 5735 5734 5733 5732 5731 5730 5730 5729 5729 5729 5728 5727 5727 5727 5727 5727 5727 5727 5727 5727
5765 5765 5765 5764 5764 5763 5762 5760 5759 5757 5755 5753 5752 5750 5749 5747 5746 5745 5744 5743 5742 5741 5740 5739 5738 5737 5736 5735 5735 5734 5734 5733 5733 5733 5732 5732 5732 5731 5731 5731 5731 5731 5731 5731
5764 5764 5764 5764 5763 5762 5761 5760 5758 5757 5755 5754 5752 5751 5750 5749 5748 5747 5746 5745 5744 5744 5743 5742 5741 5741 5740 5739 5739 5739 5738 5737 5737 5737 5737 5736 5736 5736 5735 5735 5735 5735 5735 5735
5763 5763 5763 5763 5762 5762 5761 5760 5758 5757 5755 5754 5753 5751 5751 5750 5749 5749 5748 5747 5747 5746 5746 5745 5745 5745 5744 5744 5743 5743 5742 5742 5741 5741 5741 5741 5741 5741 5740 5740 5740 5739 5739 5739
5761 5762 5762 5761 5761 5761 5760 5759 5758 5757 5756 5754 5753 5752 5752 5751 5751 5750 5750 5749 5749 5749 5748 5748 5748 5748 5748 5748 5747 5747 5747 5746 5746 5746 5746 5746 5745 5745 5745 5745 5744 5744 5744 5743
5760 5760 5760 5760 5760 5760 5759 5759 5758 5757 5756 5755 5754 5754 5753 5753 5752 5752 5751 5751 5751 5751 5751 5751 5751 5751 5751 5751 5751 5751 5751 5751 5750 5750 5750 5750 5750 5750 5749 5749 5749 5748 5748 5748
5757 5758 5758 5758 5758 5758 5758 5758 5757 5757 5756 5756 5755 5755 5754 5754 5754 5753 5753 5753 5753 5753 5753 5753 5753 5754 5754 5754 5754 5754 5754 5754 5754 5754 5754 5754 5754 5754 5754 5753 5753 5753 5752 5752
5755 5755 5756 5756 5757 5757 5757 5757 5757 5757 5756 5756 5756 5756 5755 5755 5755 5755 5755 5755 5755 5755 5755 5755 5756 5756 5757 5757 5757 5758 5758 5758 5758 5758 5758 5758 5758 5758 5757 5757 5757 5756 5756 5756
5752 5752 5753 5754 5754 5755 5755 5755 5755 5756 5756 5756 5756 5756 5756 5756 5756 5756 5756 5757 5757 5757 5757 5758 5758 5759 5759 5760 5760 5760 5761 5761 5761 5761 5761 5761 5761 5761 5761 5760 5760 5760 5759 5758
5748 5749 5750 5751 5752 5752 5753 5753 5754 5754 5755 5755 5756 5756 5756 5756 5757 5757 5757 5758 5758 5758 5759 5760 5760 5761 5761 5762 5762 5763 5763 5763 5763 5763 5763 5763 5763 5763 5763 5763 5762 5762 5761 5761
5743 5745 5746 5747 5748 5749 5750 5751 5752 5752 5753 5754 5754 5755 5756 5756 5757 5757 5758 5759 5759 5759 5760 5761 5762 5762 5763 5763 5764 5764 5765 5765 5765 5765 5765 5765 5765 5765 5765 5764 5764 5763 5763 5762
5738 5740 5741 5743 5744 5746 5747 5748 5749 5750 5751 5752 5752 5753 5754 5755 5756 5757 5758 5758 5759 5760 5760 5761 5762 5763 5763 5764 5765 5765 5765 5766 5766 5766 5766 5766 5766 5766 5766 5765 5765 5764 5764 5763
5733 5735 5736 5738 5739 5741 5743 5744 5745 5746 5748 5749 5750 5751 5752 5753 5754 5755 5756 5757 5758 5759 5760 5761 5762 5763 5763 5764 5765 5765 5766 5766 5766 5766 5766 5766 5766 5766 5766 5766 5765 5765 5764 5763